Location: Isles
(48.9125°N, 2.8272°E)
Time: 15:39:38
(UTC+00:00)

USA 215 - Visible Passes

Search period start: 30 September 2023 00:00
Search period end: 10 October 2023 00:00
Orbit: 1101 x 1107 km, 123.0° (Epoch: 22 September)

Date Brightness Start Highest point End Pass type
(mag) Time Alt. Az. Time Alt. Az. Time Alt. Az.
30 Sep 4.9 00:36:38 10° E 00:39:13 24° ENE 00:39:13 24° ENE visible
30 Sep 3.2 02:18:54 10° ESE 02:25:28 78° NNE 02:26:34 63° NW visible
30 Sep 3.6 04:02:43 10° SSE 04:08:49 41° SW 04:13:56 15° WNW visible
30 Sep 4.4 18:49:42 18° ESE 18:51:06 20° ESE 18:55:37 10° SSE visible
30 Sep 3.8 20:37:08 43° SSW 20:37:08 43° SSW 20:41:28 10° SW visible
30 Sep 5.6 23:54:17 10° ENE 23:54:52 13° ENE 23:54:52 13° ENE visible
01 Oct 3.8 01:36:27 10° E 01:42:13 55° NE 01:42:13 55° NE visible
01 Oct 3.1 03:19:14 10° SE 03:25:46 69° SW 03:29:34 27° WNW visible
01 Oct 4.4 05:04:45 10° S 05:09:35 22° SW 05:14:27 10° WNW visible
01 Oct 4.0 19:53:46 32° SSE 19:53:46 32° SSE 19:57:53 10° SSW visible
01 Oct 5.4 21:41:12 13° WSW 21:41:12 13° WSW 21:41:53 10° WSW visible
02 Oct 4.6 00:54:08 10° E 00:57:48 32° ENE 00:57:48 32° ENE visible
02 Oct 3.2 02:36:25 10° ESE 02:42:58 79° NNE 02:45:09 46° NW visible
02 Oct 3.7 04:20:14 10° SSE 04:26:19 40° SW 04:32:27 10° WNW visible
02 Oct 4.6 19:10:23 18° SE 19:10:23 18° SE 19:13:10 10° SSE visible
02 Oct 5.1 20:57:49 16° SW 20:57:49 16° SW 20:58:58 10° SW visible
03 Oct 5.3 00:11:48 10° ENE 00:13:20 18° ENE 00:13:20 18° ENE visible
03 Oct 3.7 01:53:57 10° E 02:00:20 57° NNE 02:00:40 57° N visible
03 Oct 3.2 03:36:46 10° SE 03:43:17 69° SW 03:48:02 20° WNW visible
03 Oct 5.1 20:14:22 15° SSW 20:14:22 15° SSW 20:15:24 10° SSW visible
04 Oct 4.3 01:11:39 10° E 01:16:10 39° NE 01:16:10 39° NE visible
04 Oct 3.3 02:53:55 10° ESE 03:00:29 79° NNE 03:03:31 35° NW visible
04 Oct 3.7 04:37:45 10° SSE 04:43:50 40° SW 04:49:58 10° WNW visible
05 Oct 5.1 00:29:18 10° ENE 00:31:38 22° ENE 00:31:38 22° ENE visible
05 Oct 3.7 02:11:27 10° E 02:17:51 57° NNE 02:18:59 51° NNW visible
05 Oct 3.2 03:54:16 10° SE 04:00:48 69° SW 04:06:19 15° WNW visible
05 Oct 5.7 23:46:48 10° ENE 23:47:04 11° ENE 23:47:04 11° ENE visible
06 Oct 4.1 01:29:08 10° E 01:34:25 44° NNE 01:34:25 44° NNE visible
06 Oct 3.3 03:11:26 10° ESE 03:17:59 79° NNE 03:21:46 28° NW visible
06 Oct 3.8 04:55:16 10° SSE 05:01:21 40° SW 05:07:27 10° WNW visible
07 Oct 4.9 00:46:49 10° ENE 00:49:50 27° NE 00:49:50 27° NE visible
07 Oct 3.7 02:28:58 10° E 02:35:21 58° NNE 02:37:10 44° NNW visible
07 Oct 3.2 04:11:47 10° SE 04:18:18 68° SW 04:24:31 12° WNW visible
08 Oct 5.5 00:04:17 10° ENE 00:05:14 15° ENE 00:05:14 15° ENE visible
08 Oct 4.0 01:46:39 10° E 01:52:34 47° NNE 01:52:34 47° NNE visible
08 Oct 3.3 03:28:56 10° ESE 03:35:30 79° NNE 03:39:55 23° NW visible
08 Oct 3.8 05:12:47 10° SSE 05:18:52 40° SW 05:24:58 10° WNW visible
09 Oct 4.7 01:04:18 10° ENE 01:07:57 31° NE 01:07:57 31° NE visible
09 Oct 3.7 02:46:28 10° E 02:52:51 58° NNE 02:55:18 37° NW visible
09 Oct 3.3 04:29:17 10° SE 04:35:49 68° SW 04:42:23 10° WNW visible
